Погода в Санта Ана

Боливия     13°44′35″S   65°26′04″W
темп.,
°C
ветер,
м/с
пор.,
м/с
влажн.,
%
обл.,
%
осадки,
мм/ч
давл.,
гПа
погр.,
м
17 мая, вт
вт1723:00+19ююв6135595 0.0 1021712
02:00+18ююв4116083 0.0 1020696
05:00+17ююв386491 0.0 1020309
08:00+17ююв31070100 0.0 1022706
11:00+22юв695383 0.0 10231071
14:00+22ююв585195 0.0 10201104
17:00+21ююв4859100 0.0 1018507
20:00+17ююв4126397 0.0 1021371
18 мая, ср
ср1823:00+17ююв4146044 0.0 1022461
02:00+15ююв31164100 0.0 1021303
05:00+15юв4156283 0.0 1021525
08:00+16юв4156422 0.0 1023813
11:00+20юв7134995 0.0 10231099
14:00+23юв6842100 0.0 10201419
17:00+20ююв475324 0.0 1018304
20:00+16ю366025 0.0 1019101
19 мая, чт
чт1923:00+15ююз357036 0.0 102096
02:00+14ю368191 0.0 1019144
05:00+13ююв38764 0.0 1019166
08:00+14юв386233 0.0 1020199
11:00+21вюв353651 0.0 1020728
14:00+24юв233038 0.0 10161149
17:00+23ююв1147100 0.0 101419
20:00+17юв115178 0.0 101711
20 мая, пт
пт2023:00+16ююв11542 0.0 101811
02:00+15ююв125540 0.0 101710
05:00+13юв225528 0.0 101721
08:00+15юв24595 0.0 1019116
11:00+22ююв224095 0.0 1019610
14:00+25с013370 0.0 10161014
17:00+24з114980 0.0 101513
20:00+19ю114994 0.0 101611
21 мая, сб
сб2123:00+18вюв11545 0.0 101711
02:00+17вюв11567 0.0 101611
05:00+17ююв11575 0.0 101711
08:00+19ююв126118 0.0 101980
11:00+25ююз11445 0.0 1019548
14:00+27сз224262 0.0 10151055
17:00+26ссз115577 0.0 101427
20:00+22всв22585 0.0 101511